Find Starlink 11583

NORAD ID: 62991 Int'l Des: 2025-031 Owner: SPXS Country: US Constellation: starlink operational
LEOCIRCULAR

Live Position

Loading 3D Globe...

About Starlink 11583

Description loading...

Upcoming Passes

Passes for default location (London). Set your location on the main map for personalized predictions.

Altitude History

Loading altitude history...

Two-Line Element Set

1 62991U 25031L 26110.29903700 .00050257 00000-0 39264-3 0 9994
2 62991 42.9976 110.8995 0001065 201.5295 158.5528 15.70849568 69298
Epoch: Apr 20, 2026 • Age: 9 hours

Current Status

Altitude 362.6 km
Velocity 7.69 km/s
Sub-Earth Point -27.19°S, 122.97°W
Launch Date Feb 11, 2025
Age 1.1 years
Type internet

Technical Details

Classification Payload
Mass 960.00 kg
Dry Mass 910.00 kg
Total Mass 960.00 kg
Length 0.30 m
Diameter 4.10 m
Span 29.00 m
Shape Box + pan
Manufacturer SPXS
Bus Type Starlink V2MD
Phase Status In Orbit
Owner/State SPXS/US

Most Searched